Flag for Pakistan Weather past 2 weeks in Karachi, Sindh, Pakistan

Now
88 °F

Passing clouds.


Feels Like: 100 °F
Forecast: 87 / 94 °F
Wind: 14 mph from Southwest

Location: Karachi Airport

Current Time: Jun 30, 2015 at 10:32:04 PM

Latest Report: Jun 30, 2015 at 9:55 PM


Visibility: 4 mi

Pressure: 29.62 "Hg

Humidity: 70%

Dew point: 77 °F

Location of KarachiLocation

Historic Weather in Karachi — Graph

°F

Karachi temperature yesterday

Maximum temperature yesterday: 97 °F (at 11:55 AM)
Minimum temperature yesterday: 88 °F (at 12:25 AM)
Average temperature yesterday: 91 °F

Past Weeks' High & Low Weather Summary

 TemperatureHumidityPressure
High111 °F (Jun 20, 1:55 PM)89% (Jun 16, 2:00 PM)29.68 "Hg (Jun 16, 2:00 PM)
Low77 °F (Jun 16, 2:00 PM)18% (Jun 20, 1:55 PM)29.30 "Hg (Jun 20, 3:25 PM)
Average93 °F56%29.46 "Hg
* Reported Jun 15 9:25 PM — Jun 30 9:30 PM, Karachi, Weather by CustomWeather, © 2015

Note: Actual official high and low records may vary slightly from our data, if they occured in-between our weather recording intervals... More about our weather records

Advertising

Karachi weather history for previous 24 hours

 ConditionsComfort  
Time TempWeatherWind HumidityBarometerVisibility
9:30 PM
Tue, Jun 30
88 °FPassing clouds.15 mph66%29.62 "Hg4 mi
8:55 PM88 °FPassing clouds.21 mph70%29.62 "Hg4 mi
7:25 PM88 °FPassing clouds.17 mph70%29.59 "Hg4 mi
6:55 PM90 °FScattered clouds.21 mph67%29.59 "Hg4 mi
5:55 PM91 °FScattered clouds.23 mph59%29.56 "Hg4 mi
5:25 PM91 °FScattered clouds.17 mph59%29.59 "Hg4 mi
4:55 PM91 °FScattered clouds.20 mph56%29.59 "Hg4 mi
4:25 PM93 °FScattered clouds.21 mph53%29.59 "Hg4 mi
3:55 PM93 °FScattered clouds.24 mph53%29.59 "Hg4 mi
3:25 PM93 °FScattered clouds.24 mph53%29.59 "Hg4 mi
2:25 PM93 °FScattered clouds.20 mph49%29.62 "Hg4 mi
1:55 PM95 °FScattered clouds.21 mph50%29.62 "Hg4 mi
1:25 PM95 °FScattered clouds.21 mph50%29.62 "Hg4 mi
12:55 PM95 °FScattered clouds.28 mph47%29.62 "Hg4 mi
12:25 PM93 °FScattered clouds.21 mph53%29.65 "Hg4 mi
11:55 AM93 °FScattered clouds.18 mph53%29.65 "Hg4 mi
11:25 AM93 °FScattered clouds.21 mph53%29.65 "Hg4 mi
10:55 AM93 °FScattered clouds.23 mph49%29.65 "Hg4 mi
10:25 AM91 °FScattered clouds.23 mph56%29.65 "Hg4 mi
9:55 AM91 °FScattered clouds.21 mph56%29.65 "Hg4 mi
9:25 AM91 °FScattered clouds.23 mph56%29.65 "Hg4 mi
8:55 AM90 °FScattered clouds.21 mph63%29.65 "Hg4 mi
8:25 AM90 °FScattered clouds.21 mph63%29.65 "Hg4 mi
4:55 AM86 °FPassing clouds.15 mph70%29.59 "Hg4 mi
4:25 AM86 °FPassing clouds.17 mph70%29.59 "Hg4 mi
3:55 AM86 °FPassing clouds.15 mph70%29.59 "Hg4 mi
3:25 AM86 °FPassing clouds.15 mph70%29.59 "Hg4 mi
2:55 AM86 °FPassing clouds.21 mph70%29.59 "Hg4 mi
2:25 AM86 °FPassing clouds.22 mph70%29.59 "Hg4 mi
1:55 AM86 °FPassing clouds.18 mph70%29.59 "Hg4 mi
1:25 AM88 °FPassing clouds.14 mph70%29.59 "Hg4 mi
12:55 AM88 °FPassing clouds.18 mph70%29.59 "Hg4 mi
12:25 AM88 °FPassing clouds.15 mph70%29.62 "Hg4 mi
11:55 PM
Mon, Jun 29
88 °FPassing clouds.17 mph70%29.62 "Hg4 mi
11:25 PM88 °FPassing clouds.18 mph70%29.62 "Hg4 mi
10:55 PM88 °FPassing clouds.17 mph70%29.62 "Hg4 mi
10:25 PM88 °FPassing clouds.17 mph70%29.62 "Hg4 mi
Weather by CustomWeather, © 2015

See weather overviewHow to use our weather pages